Location: ?????
(54.9266°N, 38.5527°E)
Time: 22:00:50
(UTC+00:00)

LilacSat-2 - Visible Passes

Search period start: 19 September 2024 00:00
Search period end: 29 September 2024 00:00
Orbit: 470 x 486 km, 97.5° (Epoch: 19 September)

Date Brightness Start Highest point End Pass type
(mag) Time Alt. Az. Time Alt. Az. Time Alt. Az.
21 Sep ? 16:34:18 10° W 16:34:40 10° W 16:35:02 10° W visible
22 Sep ? 16:05:27 10° SW 16:07:58 18° W 16:10:30 10° NW visible
25 Sep ? 16:20:09 10° WSW 16:22:00 14° W 16:23:53 10° NW visible
26 Sep ? 15:52:19 10° SSW 15:55:14 24° W 15:58:12 10° NW visible
28 Sep ? 16:35:30 10° W 16:35:48 10° W 16:36:07 10° W visible
